Torna al catalogo

FENGYUN 1C DEB

AttivoSSO
NORAD 29949·DEBRIS·🇨🇳 China

Lanciato May 10, 1999 da Taiyuan Satellite Launch Center

Loading…

Prossimi Passaggi (prossime 24 ore)

TLE

AggiornatoSource: Space-Track

Epoca: Sep 13, 2026, 16:13 UTC

1 29949U 99025JX  26256.67638594 -.00000113  00000-0 -41920-4 0  9994
2 29949  98.7528 268.6478 0023026 249.2121 228.3818 14.06869316  9734

Traccia FENGYUN 1C DEB in tempo reale con AllMySat

Download on the App Store